Hot Springs, AR

5:21 AM CDT on August 20, 2017 (GMT -0500)
Hot Springs Memorial

Weather History for KHOT - February, 2013

Change the Weather History Date:

Saturday, February 16, 2013

  Actual Average Record
Temperature  
Mean Temperature 36 °F -  
Max Temperature 45 °F 55 °F 73 °F (1979)
Min Temperature 28 °F 34 °F 16 °F (1958)
Degree Days  
Heating Degree Days 28    
Moisture  
Dew Point 16 °F    
Average Humidity 46    
Maximum Humidity 69    
Minimum Humidity 26    
Precipitation  
Precipitation 0.00 in - - ()
Sea Level Pressure  
Sea Level Pressure 30.28 in    
Wind  
Wind Speed 3 mph (NNW)    
Max Wind Speed 14 mph    
Max Gust Speed 21 mph    
Visibility 10 miles    
Events Snow    
Averages and records for this station are not official NWS values.
T = Trace of Precipitation, MM = Missing Value Source: NWS Daily Summary

Daily Weather History Graph

Daily Weather History Graph

Search for Another Location

Airport or City:

Trip Planner

Search our weather history database for the weather conditions in past years. The results will help you decide how hot, cold, wet, or windy it might be!

Date:

Astronomy

Feb. 16, 2013 Rise Set
Actual Time 6:56 AM CST 5:57 PM CST
Civil Twilight 6:30 AM CST 6:22 PM CST
Nautical Twilight 6:01 AM CST 6:52 PM CST
Astronomical Twilight 5:32 AM CST 7:21 PM CST
Moon 10:28 AM CST (2/16) No Moon Set
Length of Visible Light 11h 52m
Length of Day
11h 00m
Waxing Crescent, 39% of the Moon is Illuminated
Feb 16
Waxing Crescent
Feb 17
First Quarter
Feb 25
Full
Mar 4
Last Quarter
Mar 11
New

Hourly Weather History & Observations

Time (CST) Temp. Windchill Dew Point Humidity Pressure Visibility Wind Dir Wind Speed Gust Speed Precip Events Conditions
12:53 AM 34.0 °F 29.8 °F 16.0 °F 48% 30.31 in 10.0 mi NNW 4.6 mph - N/A   Clear
1:53 AM 32.0 °F - 15.1 °F 50% 30.31 in 10.0 mi Calm Calm - N/A   Clear
2:53 AM 32.0 °F - 16.0 °F 52% 30.30 in 10.0 mi Calm Calm - N/A   Clear
3:53 AM 30.9 °F - 18.0 °F 59% 30.30 in 10.0 mi Calm Calm - N/A   Partly Cloudy
4:53 AM 30.0 °F - 18.0 °F 61% 30.30 in 10.0 mi Calm Calm - N/A   Mostly Cloudy
5:53 AM 30.0 °F - 17.1 °F 59% 30.30 in 10.0 mi Calm Calm - N/A   Mostly Cloudy
6:53 AM 28.0 °F - 19.0 °F 69% 30.30 in 10.0 mi Calm Calm - 0.00 in Snow Light Snow
7:53 AM 30.9 °F - 19.0 °F 61% 30.30 in 10.0 mi Calm Calm - 0.00 in   Clear
8:53 AM 36.0 °F 28.0 °F 19.9 °F 52% 30.32 in 10.0 mi WNW 11.5 mph 18.4 mph N/A   Clear
9:53 AM 37.0 °F 28.5 °F 14.0 °F 39% 30.34 in 10.0 mi NNW 13.8 mph 19.6 mph N/A   Clear
10:53 AM 39.0 °F 31.4 °F 14.0 °F 36% 30.35 in 10.0 mi NW 12.7 mph 20.7 mph N/A   Clear
11:53 AM 39.9 °F 33.9 °F 15.1 °F 36% 30.35 in 10.0 mi NW 9.2 mph 19.6 mph N/A   Partly Cloudy
12:53 PM 44.1 °F 39.5 °F 16.0 °F 32% 30.31 in 10.0 mi NW 8.1 mph - N/A   Clear
1:53 PM 43.0 °F 39.5 °F 14.0 °F 31% 30.29 in 10.0 mi NW 5.8 mph - N/A   Clear
2:53 PM 43.0 °F - 12.9 °F 30% 30.27 in 10.0 mi Calm Calm - N/A   Clear
3:53 PM 45.0 °F 41.8 °F 12.0 °F 26% 30.26 in 10.0 mi West 5.8 mph - N/A   Clear
4:53 PM 43.0 °F 40.3 °F 10.0 °F 26% 30.25 in 10.0 mi North 4.6 mph - N/A   Clear
5:53 PM 43.0 °F - 10.9 °F 27% 30.24 in 10.0 mi Calm Calm - N/A   Overcast
6:53 PM 41.0 °F - 15.1 °F 35% 30.24 in 10.0 mi Calm Calm - N/A   Overcast
7:53 PM 39.9 °F - 18.0 °F 41% 30.23 in 10.0 mi Calm Calm - N/A   Overcast
8:53 PM 37.9 °F - 21.0 °F 51% 30.24 in 10.0 mi Calm Calm - N/A   Mostly Cloudy
9:53 PM 34.0 °F 31.0 °F 19.9 °F 56% 30.24 in 10.0 mi ENE 3.5 mph - N/A   Partly Cloudy
10:53 PM 32.0 °F - 21.9 °F 66% 30.24 in 10.0 mi Calm Calm - N/A   Clear
11:53 PM 30.0 °F 26.5 °F 19.9 °F 66% 30.24 in 10.0 mi East 3.5 mph - N/A   Clear